Location: Ch?enovice
(49.7164°N, 15.2160°E)
Time: 17:01:17
(UTC+00:00)

ALOS - Pass Details

Date: 23 May 2024
Orbit: 673 x 676 km, 98.0° (Epoch: 13 June)

Event Time Altitude Azimuth Distance (km) Brightness Sun altitude
Rises 01:20:37 0° 19° (NNE) 3,039 7.2 -12.7°
Reaches altitude 10° 01:22:58 10° 26° (NNE) 2,119 6.3 -12.5°
Maximum altitude 01:27:22 42° 98° (E) 957 3.3 -12.0°
Drops below altitude 10° 01:31:44 10° 170° (S) 2,101 4.4 -11.6°
Enters shadow 01:32:28 - 173° (S) 2,385 4.6 -11.6°
